• en France
  • Liste des pays
  • À 7 jours
  • Température de l'eau
  • Carte satellitaire
  • Carte météo
  • Widgets météo
  • user-avatar
    Se connecter

    Météo par heure à Levyki

    Ce jour, 22 Mai, Mardi

    Heure Température Précipitation Vent Pression Humidité
    00:00 +9°C° 0 mm 2 m/s 753 mmHg 80%
    01:00 +9°C° 0 mm 2 m/s 753 mmHg 82%
    02:00 +8°C° 0 mm 2 m/s 753 mmHg 87%
    03:00 +8°C° 0 mm 2 m/s 752 mmHg 86%
    04:00 +8°C° 0 mm 2 m/s 752 mmHg 85%
    05:00 +9°C° 0 mm 2 m/s 752 mmHg 84%
    06:00 +10°C° 0 mm 2 m/s 752 mmHg 79%
    07:00 +12°C° 0 mm 3 m/s 752 mmHg 75%
    08:00 +14°C° 0 mm 3 m/s 752 mmHg 70%
    09:00 +14°C° 0,1 mm 3 m/s 752 mmHg 71%
    10:00 +14°C° 0,1 mm 3 m/s 752 mmHg 71%
    11:00 +16°C° 0,1 mm 3 m/s 752 mmHg 72%
    12:00 +14°C° 0,3 mm 3 m/s 751 mmHg 78%
    13:00 +15°C° 0,3 mm 2 m/s 751 mmHg 83%
    14:00 +13°C° 0 mm 3 m/s 752 mmHg 86%
    15:00 +14°C° 0,1 mm 2 m/s 751 mmHg 86%
    16:00 +14°C° 0,1 mm 2 m/s 751 mmHg 87%
    17:00 +15°C° 0,1 mm 2 m/s 751 mmHg 87%
    18:00 +14°C° 0 mm 2 m/s 751 mmHg 90%
    19:00 +13°C° 0 mm 1 m/s 750 mmHg 93%
    20:00 +13°C° 0 mm 1 m/s 750 mmHg 95%
    21:00 +12°C° 0 mm 1 m/s 750 mmHg 96%
    22:00 +12°C° 0 mm 1 m/s 750 mmHg 96%
    23:00 +10°C° 0 mm 2 m/s 750 mmHg 97%

    Demain, 23 Mai, Mercredi

    Heure Température Précipitation Vent Pression Humidité
    00:00 +10°C° 0 mm 2 m/s 751 mmHg 97%
    01:00 +10°C° 0 mm 2 m/s 751 mmHg 97%
    02:00 +11°C° 0 mm 1 m/s 751 mmHg 97%
    03:00 +11°C° 0 mm 1 m/s 751 mmHg 97%
    04:00 +11°C° 0 mm 1 m/s 751 mmHg 97%
    05:00 +11°C° 0 mm 1 m/s 751 mmHg 97%
    06:00 +13°C° 0 mm 2 m/s 751 mmHg 91%
    07:00 +15°C° 0 mm 2 m/s 751 mmHg 85%
    08:00 +17°C° 0 mm 2 m/s 751 mmHg 78%
    09:00 +18°C° 0 mm 2 m/s 751 mmHg 72%
    10:00 +20°C° 0 mm 2 m/s 751 mmHg 65%
    11:00 +21°C° 0 mm 3 m/s 751 mmHg 59%
    12:00 +21°C° 0,6 mm 3 m/s 750 mmHg 63%
    13:00 +21°C° 0,6 mm 3 m/s 750 mmHg 67%
    14:00 +21°C° 0,6 mm 3 m/s 750 mmHg 71%
    15:00 +21°C° 0,6 mm 3 m/s 750 mmHg 73%
    16:00 +21°C° 0,6 mm 2 m/s 749 mmHg 76%
    17:00 +20°C° 0,6 mm 2 m/s 749 mmHg 79%
    18:00 +19°C° 1,1 mm 2 m/s 749 mmHg 83%
    19:00 +18°C° 1,1 mm 2 m/s 749 mmHg 87%
    20:00 +16°C° 1,1 mm 2 m/s 749 mmHg 91%
    21:00 +15°C° 0,3 mm 1 m/s 749 mmHg 92%
    22:00 +15°C° 0,3 mm 1 m/s 749 mmHg 93%
    23:00 +14°C° 0,3 mm 1 m/s 749 mmHg 94%

    Après-demain, 24 Mai, Jeudi

    Heure Température Précipitation Vent Pression Humidité
    00:00 +13°C° 0,1 mm 1 m/s 749 mmHg 94%
    01:00 +13°C° 0,1 mm 1 m/s 749 mmHg 95%
    02:00 +12°C° 0,1 mm 1 m/s 749 mmHg 95%
    03:00 +13°C° 0,4 mm 1 m/s 749 mmHg 96%
    04:00 +13°C° 0,4 mm 1 m/s 749 mmHg 96%
    05:00 +13°C° 0,4 mm 1 m/s 749 mmHg 97%
    06:00 +14°C° 0,3 mm 1 m/s 749 mmHg 94%
    07:00 +16°C° 0,3 mm 1 m/s 750 mmHg 91%
    08:00 +17°C° 0,3 mm 2 m/s 750 mmHg 88%
    09:00 +18°C° 0,7 mm 2 m/s 750 mmHg 83%
    10:00 +19°C° 0,7 mm 2 m/s 750 mmHg 78%
    11:00 +20°C° 0,7 mm 3 m/s 750 mmHg 73%
    12:00 +21°C° 0,7 mm 3 m/s 750 mmHg 73%
    13:00 +21°C° 0,7 mm 3 m/s 750 mmHg 72%
    14:00 +21°C° 0,7 mm 4 m/s 749 mmHg 72%
    15:00 +21°C° 0,7 mm 4 m/s 749 mmHg 74%
    16:00 +21°C° 0,7 mm 3 m/s 749 mmHg 76%
    17:00 +21°C° 0,7 mm 3 m/s 749 mmHg 78%
    18:00 +19°C° 0,6 mm 3 m/s 750 mmHg 82%
    19:00 +18°C° 0,6 mm 3 m/s 750 mmHg 86%
    20:00 +17°C° 0,6 mm 3 m/s 750 mmHg 90%
    21:00 +16°C° 0,2 mm 3 m/s 750 mmHg 91%
    22:00 +16°C° 0,2 mm 3 m/s 751 mmHg 93%
    23:00 +14°C° 0,2 mm 3 m/s 751 mmHg 94%

    25 Mai, Vendredi

    Heure Température Précipitation Vent Pression Humidité
    00:00 +14°C° 0 mm 3 m/s 751 mmHg 94%
    01:00 +13°C° 0 mm 3 m/s 752 mmHg 95%
    02:00 +13°C° 0 mm 3 m/s 752 mmHg 96%
    03:00 +13°C° 0 mm 3 m/s 752 mmHg 95%
    04:00 +12°C° 0 mm 3 m/s 753 mmHg 94%
    05:00 +12°C° 0 mm 3 m/s 753 mmHg 93%
    06:00 +13°C° 0 mm 4 m/s 753 mmHg 86%
    07:00 +15°C° 0 mm 4 m/s 754 mmHg 79%
    08:00 +17°C° 0 mm 4 m/s 754 mmHg 72%
    09:00 +18°C° 0 mm 4 m/s 755 mmHg 65%
    10:00 +19°C° 0 mm 4 m/s 755 mmHg 58%
    11:00 +21°C° 0 mm 4 m/s 755 mmHg 50%
    12:00 +21°C° 0 mm 4 m/s 755 mmHg 48%
    13:00 +21°C° 0 mm 4 m/s 755 mmHg 46%
    14:00 +22°C° 0 mm 4 m/s 755 mmHg 44%
    15:00 +21°C° 0 mm 3 m/s 755 mmHg 46%
    16:00 +21°C° 0 mm 3 m/s 755 mmHg 49%
    17:00 +21°C° 0 mm 3 m/s 755 mmHg 52%
    18:00 +19°C° 0 mm 3 m/s 756 mmHg 59%
    19:00 +17°C° 0 mm 2 m/s 756 mmHg 66%
    20:00 +15°C° 0 mm 2 m/s 756 mmHg 73%
    21:00 +14°C° 0 mm 2 m/s 757 mmHg 74%
    22:00 +13°C° 0 mm 2 m/s 757 mmHg 74%
    23:00 +12°C° 0 mm 2 m/s 758 mmHg 75%

    26 Mai, Samedi

    Heure Température Précipitation Vent Pression Humidité
    00:00 +10°C° 0 mm 2 m/s 758 mmHg 75%
    01:00 +10°C° 0 mm 2 m/s 758 mmHg 76%
    02:00 +9°C° 0 mm 2 m/s 759 mmHg 76%
    03:00 +9°C° 0 mm 2 m/s 759 mmHg 77%
    04:00 +9°C° 0 mm 2 m/s 759 mmHg 78%
    05:00 +9°C° 0 mm 2 m/s 759 mmHg 79%
    06:00 +12°C° 0 mm 2 m/s 760 mmHg 73%
    07:00 +15°C° 0 mm 2 m/s 760 mmHg 66%
    08:00 +17°C° 0 mm 2 m/s 760 mmHg 59%
    09:00 +18°C° 0 mm 2 m/s 760 mmHg 54%
    10:00 +19°C° 0 mm 2 m/s 760 mmHg 49%
    11:00 +20°C° 0 mm 2 m/s 760 mmHg 45%
    12:00 +21°C° 0 mm 2 m/s 760 mmHg 45%
    13:00 +21°C° 0 mm 2 m/s 760 mmHg 45%
    14:00 +23°C° 0 mm 2 m/s 759 mmHg 45%
    15:00 +21°C° 0 mm 2 m/s 759 mmHg 48%
    16:00 +21°C° 0 mm 2 m/s 759 mmHg 51%
    17:00 +21°C° 0 mm 2 m/s 759 mmHg 54%
    18:00 +19°C° 0 mm 2 m/s 758 mmHg 61%
    19:00 +17°C° 0 mm 2 m/s 758 mmHg 69%
    20:00 +15°C° 0 mm 1 m/s 758 mmHg 76%
    21:00 +14°C° 0 mm 1 m/s 758 mmHg 78%
    22:00 +13°C° 0 mm 1 m/s 759 mmHg 80%
    23:00 +12°C° 0 mm 1 m/s 759 mmHg 83%

    27 Mai, Dimanche

    Heure Température Précipitation Vent Pression Humidité
    00:00 +12°C° 0 mm 1 m/s 759 mmHg 84%
    01:00 +12°C° 0 mm 2 m/s 759 mmHg 85%
    02:00 +10°C° 0 mm 2 m/s 759 mmHg 86%
    03:00 +10°C° 0 mm 2 m/s 759 mmHg 85%
    04:00 +12°C° 0 mm 2 m/s 759 mmHg 85%
    05:00 +12°C° 0 mm 2 m/s 758 mmHg 84%
    06:00 +14°C° 0 mm 2 m/s 758 mmHg 78%
    07:00 +16°C° 0 mm 2 m/s 758 mmHg 71%
    08:00 +18°C° 0 mm 3 m/s 758 mmHg 64%
    09:00 +19°C° 0 mm 3 m/s 758 mmHg 60%
    10:00 +20°C° 0 mm 3 m/s 758 mmHg 56%
    11:00 +21°C° 0 mm 3 m/s 758 mmHg 52%
    12:00 +21°C° 0 mm 3 m/s 757 mmHg 51%
    13:00 +22°C° 0 mm 3 m/s 757 mmHg 50%
    14:00 +22°C° 0 mm 3 m/s 756 mmHg 49%
    15:00 +22°C° 0 mm 3 m/s 756 mmHg 51%
    16:00 +22°C° 0 mm 3 m/s 756 mmHg 53%
    17:00 +23°C° 0 mm 2 m/s 755 mmHg 56%
    18:00 +20°C° 0 mm 2 m/s 755 mmHg 63%
    19:00 +18°C° 0 mm 2 m/s 755 mmHg 70%
    20:00 +17°C° 0 mm 2 m/s 755 mmHg 78%
    21:00 +16°C° 0 mm 2 m/s 755 mmHg 79%
    22:00 +15°C° 0 mm 2 m/s 755 mmHg 80%
    23:00 +14°C° 0 mm 2 m/s 755 mmHg 81%
    Voir plus